Regional Weather Roundup
Issued by NWS

Home | Current Version | Previous Version | Text Only | Print | Product List | Glossary On
Versions: 1 2 3 4 5 6 7 8 9 10 11 12 13 14 15 16 17 18 19 20 21 22 23 24 25 26 27 28 29 30 31 32 33 34 35 36 37 38 39 40 41 42 43 44 45 46 47 48 49 50
000
ASUS46 KLOX 261412
RWRCA

SOUTHERN CALIFORNIA WEATHER ROUNDUP
NATIONAL WEATHER SERVICE OXNARD CALIFORNIA
700 AM PDT SUN APR 26 2015

NOTE: "FAIR" INDICATES FEW OR NO CLOUDS BELOW 12,000 FEET WITH NO
SIGNIFICANT WEATHER AND/OR OBSTRUCTIONS TO VISIBILITY.

  -  STATIONS PRECEEDED BY AN ASTERISK (*) ARE NOT NWS OR FAA
     STATIONS AND ARE NOT SUBJECT TO NWS AND FAA QUALITY CONTROL.

CAZ041-042-087-261500-
LA AND ORANGE COUNTY COASTAL AREAS


CITY           SKY/WX    TMP DP  RH WIND       PRES   REMARKS
L.A. DOWNTOWN  CLEAR     55  50  83 VRB3      29.97R
L.A. AIRPORT   PTCLDY    53  50  89 S6        29.98R
LONG BEACH     CLEAR     54  49  83 CALM      29.98R

CITY           SKY/WX    TMP DP  RH WIND       PRES   REMARKS
AVALON           N/A     50 N/A N/A MISG        N/A
FULLERTON      CLEAR     53  48  83 CALM      29.97R
*GETTY CENTER    N/A    N/A N/A N/A E5G16       N/A
HAWTHORNE      CLEAR     54  49  83 CALM      29.98R
*LOS ALAMITOS  FAIR      51  49  93 NE1       29.97R
*REDONDO BEACH   N/A     51  47  87 CALM      29.98R
SANTA ANA      PTCLDY    55  49  80 CALM      29.97R
STA MONICA APT PTCLDY    61  43  51 N10G20    29.97R
TORRANCE       PTCLDY    52  48  87 CALM      29.99
*UCLA            N/A     63  37  39 N12       29.95R

$$

CAZ547-548-048-261500-
LA COUNTY VALLEYS AND INLAND EMPIRE


CITY           SKY/WX    TMP DP  RH WIND       PRES   REMARKS
BURBANK        CLEAR     59  40  49 N10       29.96R
VAN NUYS       PTCLDY    61  40  45 N20G33    29.94R

CITY           SKY/WX    TMP DP  RH WIND       PRES   REMARKS
CORONA AIRPORT MOSUNNY   46  46 100 CALM      29.99R FOG
*CHATSWORTH      N/A     62  40  44 N7        29.98R
CHINO          MOCLDY    52  50  93 CALM      29.99R
MARCH AFB      CLOUDY    51  51 100 S5        29.97R
*NORTHRIDGE      N/A     59  37  44 N5G12       N/A
ONTARIO        MOCLDY    51  49  92 CALM      29.97R FOG
*PASADENA        N/A     52  52 100 CALM        N/A
POMONA         CLEAR     46  45  93 CALM      30.00
RIVERSIDE      MOSUNNY   50  48  93 E3        29.98R
SAN BERNARDINO PTSUNNY   48  46  93 CALM      29.98  FOG
*WHITEMAN AP   NOT AVBL
*WOODLAND HILL   N/A     57  39  51 S2          N/A

$$

CAZ054-055-261500-
LA AND SAN BERNARDINO COUNTY MOUNTAINS


CITY           SKY/WX    TMP DP  RH WIND       PRES   REMARKS
*BIG BEAR AIRP CLOUDY    34  30  86 W3        30.01R
*CHILAO          N/A     41  31  68 N14G26      N/A  WCI  33
MT WILSON NWS    N/A     37  32  81 W1          N/A
SANDBERG       CLOUDY    41  37  86 N6G21     30.02S
*WARM SPRINGS    N/A     44  38  78 NW14G33     N/A

$$

CAZ028-029-059-060-099-261500-
ANTELOPE VALLEY AND SURROUNDING AREAS


CITY           SKY/WX    TMP DP  RH WIND       PRES   REMARKS
LANCASTER      CLEAR     49  36  61 NW8       30.00S
PALMDALE       CLEAR     51  38  60 W7        30.01R

CITY           SKY/WX    TMP DP  RH WIND       PRES   REMARKS
29 PALMS       SUNNY     55  36  48 NW23G32   29.99R
BARSTOW/DAGGET SUNNY     54  36  50 W13       29.95R
BISHOP         CLEAR     46  26  45 N13       30.03R
CHINA LAKE     SUNNY     54  28  36 NW9       29.96R
EDWARDS AFB    CLEAR     54  36  51 VRB5      29.97
MOJAVE         FAIR      50  36  57 W16G25    29.99R
NEEDLES        SUNNY     59  34  39 CALM      29.85R
VICTORVILLE    SUNNY     48  36  61 W13G20    29.98R

$$

CAZ039-040-261500-
VENTURA AND SANTA BARBARA COUNTY COAST


CITY           SKY/WX    TMP DP  RH WIND       PRES   REMARKS
CAMARILLO      CLEAR     50  46  86 CALM      29.98R
NWS OXNARD       N/A     49  46  88 CALM      29.98R
OXNARD AIRPORT CLEAR     51  46  83 CALM      29.99R
*POINT MUGU    PTCLDY    51  46  83 N5        30.00R
SBA APT/GOLETA CLEAR     53  44  71 CALM      29.99R
*SANTA BARBARA   N/A     54  42  63 CALM      30.06R
*VENTURA         N/A     50  45  84 CALM      30.02S

$$

CAZ044-045-261500-
VENTURA COUNTY VALLEYS


CITY           SKY/WX    TMP DP  RH WIND       PRES   REMARKS
*SIMI VALLEY     N/A     59  42  53 CALM      29.93S
*OJAI            N/A     45  42  89 CALM      29.95R
*FILLMORE        N/A     46  44  90 CALM      29.88R

$$

CAZ053-261500-
VENTURA COUNTY MOUNTAINS


CITY           SKY/WX    TMP DP  RH WIND       PRES   REMARKS
*LOCKWOOD VLY    N/A     39  30  70 MISG        N/A
*ROSE VALLEY     N/A     37  37 100 MISG        N/A

$$

CAZ034-035-036-261500-
CENTRAL COAST AND SANTA YNEZ VALLEY


CITY           SKY/WX    TMP DP  RH WIND       PRES   REMARKS
SAN LUIS OBISP CLEAR     53  39  59 N14       30.07R
SANTA MARIA    PTCLDY    45  41  86 W8        30.06R

CITY           SKY/WX    TMP DP  RH WIND       PRES   REMARKS
*CAL POLY SLO    N/A     52  41  66 NE10        N/A
*LOMPOC        CLEAR     50  45  81 W7        30.07R
*PISMO BEACH     N/A     52  44  72 NE1       30.08R
*SANTA YNEZ    FAIR      46  41  81 CALM      30.04R

$$

CAZ037-038-051-261500-
SAN LUIS OBISPO COUNTY INTERIOR AND CUYAMA VALLEY


CITY           SKY/WX    TMP DP  RH WIND       PRES   REMARKS
*CUYAMA          N/A     44  39  81 CALM      30.04R
PASO ROBLES    CLEAR     45  41  86 NW6       30.08R

$$

CAZ032-033-061-261500-
SOUTHERN DESERTS


CITY           SKY/WX    TMP DP  RH WIND       PRES   REMARKS
BLYTHE         SUNNY     66  34  30 NW13      29.84R
IMPERIAL       SUNNY     57  44  62 W7        29.87R
PALM SPRINGS   MOSUNNY   60  40  47 SW3       29.90R
THERMAL        MOSUNNY   64  42  44 W10       29.87R

$$

ELSEWHERE ACROSS THE WESTERN UNITED STATES AND MEXICO


CITY           SKY/WX    TMP DP  RH WIND       PRES   REMARKS
DENVER, CO     LGT RAIN  42  42 100 E23       29.81F WCI  33
GRAND CANYON,  CLOUDY    36  36 100 CALM      29.82R
HONOLULU, HI   PTCLDY    73  70  88 S6        29.94F
KAHULUI, MAUI  CLEAR     70  64  83 SW3       29.95F
LAKE TAHOE, CA MOCLDY    31  25  78 CALM      30.09R
LAS VEGAS, NV  MOSUNNY   58  29  33 NW17G29   29.84R
MAMMOTH LAKES, FAIR      27  21  80 W5        30.09R WCI  21
MEXICO CITY, M SUNNY     63  45  51 NE6       30.28R
PHOENIX, AZ    PTSUNNY   57  52  83 SW6       29.79R
PORTLAND, OR   MOCLDY    44  40  85 E6        30.19R
RENO, NV       PTCLDY    41  29  62 CALM      30.10R
SALT LAKE CITY LGT RAIN  40  36  86 NW13      29.90R WCI  32
SAN DIEGO, CA  PTSUNNY   59  49  69 CALM      30.00R
SAN FRANCISCO, PTCLDY    52  44  74 W13       30.11R
SAN JOSE, CA   PTCLDY    48  42  80 SE3       30.12R
SEATTLE, WA    CLOUDY    43  36  76 SE6       30.16R
TIJUANA, MEX   PTSUNNY   54  48  82 E3        30.01R

$$

STATION/POSITION TIME  TEMP    WIND        PRES    VSBY  WAVE
                       AIR SEA DIR/SP/G                  HT/PER
                 (UTC) (F)     (DEG/KT/KT) (MB)    (MI)  (FT/S)
POINT ARGUELLO B NOT AVBL
WEST SANTA BARBA 1400   53 53  330/ 25/ 29 1016.5R        10/ 8
POINT CONCEPTION NOT AVBL
EAST SANTA BARBA NOT AVBL
SANTA MONICA BAY 1400   58 58  310/  8/ 10 1015.4R         6/ 7


USA.gov is the U.S. government's official web portal to all federal, state and local government web resources and services.